,,PA_Meas_PMT16A,,PR_Meas_QMR101_102,,RH_Meas_QMH101,,SR_Meas_QMS101,,TA_Meas_QMH101,,GenWind,,GenWind,
time,status,PA,status,PR,status,RH,status,SR,status,TA,status,DirAvg,status,SpdAvg,
2012-04-05, 00:00:04,VALID,921.234,VALID,0,VALID,97.0766,VALID,0,VALID,20.0118,VALID,10,VALID,0.376172,
2012-04-05, 00:01:04,VALID,921.238,VALID,0,VALID,97.0842,VALID,0.107441,VALID,20.0313,VALID,10,VALID,0.388281,
2012-04-05, 00:02:04,VALID,921.22,VALID,0,VALID,97.0385,VALID,0,VALID,20.0313,VALID,10,VALID,0.0152344,
2012-04-05, 00:03:04,VALID,921.214,VALID,0,VALID,97.008,VALID,0.107441,VALID,20.0118,VALID,10,VALID,0.664063,
2012-04-05, 00:04:04,VALID,921.19,VALID,0,VALID,96.9927,VALID,0.107441,VALID,19.9923,VALID,10,VALID,0.737891,
2012-04-05, 00:05:04,VALID,921.192,VALID,0,VALID,96.947,VALID,0,VALID,19.9923,VALID,10,VALID,0.924609,
2012-04-05, 00:06:04,VALID,921.174,VALID,0,VALID,96.9622,VALID,0,VALID,19.9728,VALID,10,VALID,0.857422,
2012-04-05, 00:07:04,VALID,921.123,VALID,0,VALID,96.9622,VALID,0,VALID,19.9548,VALID,10,VALID,0.749609,
2012-04-05, 00:08:04,VALID,921.159,VALID,0,VALID,96.9775,VALID,0,VALID,19.9743,VALID,9,VALID,0.501562,
2012-04-05, 00:09:04,VALID,921.121,VALID,0,VALID,96.9851,VALID,0,VALID,19.9338,VALID,10,VALID,0.377734,
2012-04-05, 00:10:04,VALID,921.154,VALID,0,VALID,96.9927,VALID,0,VALID,19.9743,VALID,10,VALID,0.167969,
2012-04-05, 00:11:04,VALID,921.115,VALID,0,VALID,97.0232,VALID,0,VALID,19.9938,VALID,10,VALID,0,
2012-04-05, 00:12:04,VALID,921.086,VALID,0,VALID,97.0232,VALID,0,VALID,19.9533,VALID,10,VALID,0.302734,
2012-04-05, 00:13:04,VALID,921.068,VALID,0,VALID,97.0613,VALID,0,VALID,19.9743,VALID,10,VALID,0,
2012-04-05, 00:14:04,VALID,921.083,VALID,0,VALID,97.0537,VALID,0.107441,VALID,19.9743,VALID,10,VALID,0.233203,
2012-04-05, 00:15:04,VALID,921.088,VALID,0,VALID,97.0461,VALID,0,VALID,19.9533,VALID,9,VALID,0.281641,
2012-04-05, 00:16:04,VALID,921.064,VALID,0,VALID,97.0461,VALID,0.107441,VALID,19.9533,VALID,10,VALID,0.467969,
2012-04-05, 00:17:04,VALID,921.079,VALID,0,VALID,97.0385,VALID,0.107441,VALID,19.9338,VALID,10,VALID,0.390625,
2012-04-05, 00:18:04,VALID,921.047,VALID,0,VALID,97.0613,VALID,0,VALID,19.9353,VALID,10,VALID,0.110156,
2012-04-05, 00:19:04,VALID,921.046,VALID,0,VALID,97.0994,VALID,0.107441,VALID,19.9143,VALID,10,VALID,0,
2012-04-05, 00:20:04,VALID,921.025,VALID,0,VALID,97.1147,VALID,0,VALID,19.8948,VALID,10,VALID,0,
2012-04-05, 00:21:04,VALID,921.031,VALID,0,VALID,97.1071,VALID,0.107441,VALID,19.8948,VALID,10,VALID,0,
2012-04-05, 00:22:04,VALID,921.016,VALID,0,VALID,97.1147,VALID,0.107441,VALID,19.9143,VALID,10,VALID,0,
2012-04-05, 00:23:04,VALID,921.002,VALID,0,VALID,97.1376,VALID,0,VALID,19.9143,VALID,10,VALID,0,
2012-04-05, 00:24:04,VALID,920.991,VALID,0,VALID,97.1376,VALID,0.107441,VALID,19.9143,VALID,9,VALID,0,
2012-04-05, 00:25:04,VALID,920.963,VALID,0,VALID,97.0994,VALID,0,VALID,19.8753,VALID,10,VALID,0,
2012-04-05, 00:26:04,VALID,920.935,VALID,0,VALID,97.1299,VALID,0,VALID,19.8753,VALID,10,VALID,0,
2012-04-05, 00:27:04,VALID,920.905,VALID,0,VALID,97.1223,VALID,0.107441,VALID,19.8558,VALID,10,VALID,0,
2012-04-05, 00:28:04,VALID,920.897,VALID,0,VALID,97.1528,VALID,0.107441,VALID,19.8768,VALID,10,VALID,0,
2012-04-05, 00:29:04,VALID,920.862,VALID,0,VALID,97.1604,VALID,0,VALID,19.8963,VALID,10,VALID,0,
2012-04-05, 00:30:04,VALID,920.857,VALID,0,VALID,97.1757,VALID,0.107441,VALID,19.8753,VALID,9,VALID,0,
2012-04-05, 00:31:04,VALID,920.821,VALID,0,VALID,97.1681,VALID,0.107441,VALID,19.8963,VALID,10,VALID,0,
2012-04-05, 00:32:04,VALID,920.817,VALID,0,VALID,97.1528,VALID,0.107441,VALID,19.8558,VALID,10,VALID,0,
2012-04-05, 00:33:04,VALID,920.79,VALID,0,VALID,97.1833,VALID,0.107441,VALID,19.8558,VALID,10,VALID,0,
2012-04-05, 00:34:04,VALID,920.787,VALID,0,VALID,97.1909,VALID,0.107441,VALID,19.8753,VALID,10,VALID,0,
2012-04-05, 00:35:04,VALID,920.802,VALID,0,VALID,97.1757,VALID,0.107441,VALID,19.9158,VALID,10,VALID,0,
2012-04-05, 00:36:04,VALID,920.795,VALID,0,VALID,97.2138,VALID,0.107441,VALID,19.8948,VALID,10,VALID,0,
2012-04-05, 00:37:04,VALID,920.819,VALID,0,VALID,97.229,VALID,0,VALID,19.8753,VALID,9,VALID,0,
2012-04-05, 00:38:04,VALID,920.803,VALID,0,VALID,97.2214,VALID,0.107441,VALID,19.9158,VALID,10,VALID,0,
2012-04-05, 00:39:04,VALID,920.798,VALID,0,VALID,97.2138,VALID,0,VALID,19.9563,VALID,9,VALID,0,
2012-04-05, 00:40:04,VALID,920.818,VALID,0,VALID,97.229,VALID,0,VALID,19.9548,VALID,10,VALID,0,
2012-04-05, 00:41:04,VALID,920.826,VALID,0,VALID,97.229,VALID,0,VALID,19.9353,VALID,9,VALID,0,
2012-04-05, 00:42:04,VALID,920.843,VALID,0,VALID,97.2214,VALID,0,VALID,19.9158,VALID,9,VALID,0,
2012-04-05, 00:43:04,VALID,920.843,VALID,0,VALID,97.2367,VALID,0,VALID,19.9563,VALID,10,VALID,0,
2012-04-05, 00:44:04,VALID,920.841,VALID,0,VALID,97.2062,VALID,0,VALID,19.9563,VALID,10,VALID,0,
2012-04-05, 00:45:04,VALID,920.82,VALID,0,VALID,97.2214,VALID,0,VALID,19.9758,VALID,10,VALID,0,
2012-04-05, 00:46:04,VALID,920.815,VALID,0,VALID,97.2214,VALID,0,VALID,19.9353,VALID,10,VALID,0,
2012-04-05, 00:47:04,VALID,920.814,VALID,0,VALID,97.2519,VALID,0,VALID,19.9353,VALID,10,VALID,0,
2012-04-05, 00:48:04,VALID,920.799,VALID,0,VALID,97.2367,VALID,0,VALID,19.9548,VALID,10,VALID,0.355469,
2012-04-05, 00:49:04,VALID,920.803,VALID,0,VALID,97.2443,VALID,0,VALID,19.9548,VALID,10,VALID,0,
2012-04-05, 00:50:04,VALID,920.806,VALID,0,VALID,97.2443,VALID,0,VALID,19.9548,VALID,10,VALID,0.190625,
2012-04-05, 00:51:04,VALID,920.794,VALID,0,VALID,97.2443,VALID,0,VALID,19.9548,VALID,10,VALID,0.100391,
2012-04-05, 00:52:04,VALID,920.782,VALID,0,VALID,97.2443,VALID,0,VALID,19.9353,VALID,10,VALID,0.415625,
2012-04-05, 00:53:04,VALID,920.76,VALID,0,VALID,97.229,VALID,0,VALID,19.9563,VALID,10,VALID,0.414453,
2012-04-05, 00:54:04,VALID,920.754,VALID,0,VALID,97.2214,VALID,0.107441,VALID,19.9353,VALID,10,VALID,0.0808594,
2012-04-05, 00:55:04,VALID,920.754,VALID,0,VALID,97.2443,VALID,0,VALID,19.9143,VALID,9,VALID,0,
2012-04-05, 00:56:04,VALID,920.744,VALID,0,VALID,97.2519,VALID,0.107441,VALID,19.9143,VALID,10,VALID,0,
2012-04-05, 00:57:04,VALID,920.753,VALID,0,VALID,97.2367,VALID,0,VALID,19.9548,VALID,10,VALID,0,
2012-04-05, 00:58:04,VALID,920.769,VALID,0,VALID,97.229,VALID,0,VALID,19.9548,VALID,10,VALID,0.601172,
2012-04-05, 00:59:04,VALID,920.771,VALID,0,VALID,97.2443,VALID,0,VALID,19.9353,VALID,10,VALID,0.472266,
2012-04-05, 01:00:04,VALID,920.755,VALID,0,VALID,97.2367,VALID,0,VALID,19.8963,VALID,10,VALID,0.184375,
2012-04-05, 01:01:04,VALID,920.766,VALID,0,VALID,97.229,VALID,0.107441,VALID,19.8768,VALID,10,VALID,0.177734,
2012-04-05, 01:02:04,VALID,920.741,VALID,0,VALID,97.229,VALID,0.107441,VALID,19.8753,VALID,10,VALID,0,
2012-04-05, 01:03:04,VALID,920.751,VALID,0,VALID,97.2214,VALID,0,VALID,19.8768,VALID,9,VALID,0,
2012-04-05, 01:04:04,VALID,920.762,VALID,0,VALID,97.1986,VALID,0.107441,VALID,19.8363,VALID,10,VALID,0.0289063,
2012-04-05, 01:05:04,VALID,920.715,VALID,0,VALID,97.2214,VALID,0,VALID,19.8573,VALID,10,VALID,0.336719,
2012-04-05, 01:06:04,VALID,920.706,VALID,0,VALID,97.2367,VALID,0,VALID,19.8363,VALID,10,VALID,0.240625,
2012-04-05, 01:07:04,VALID,920.701,VALID,0,VALID,97.229,VALID,0.107441,VALID,19.8363,VALID,10,VALID,0,
2012-04-05, 01:08:04,VALID,920.66,VALID,0,VALID,97.2443,VALID,0,VALID,19.8378,VALID,10,VALID,0,
2012-04-05, 01:09:04,VALID,920.677,VALID,0,VALID,97.2367,VALID,0,VALID,19.8183,VALID,10,VALID,0,
2012-04-05, 01:10:04,VALID,920.686,VALID,0,VALID,97.2595,VALID,0,VALID,19.8378,VALID,9,VALID,0,
2012-04-05, 01:11:04,VALID,920.681,VALID,0,VALID,97.2595,VALID,0,VALID,19.8588,VALID,10,VALID,0.219141,
2012-04-05, 01:12:04,VALID,920.638,VALID,0,VALID,97.2748,VALID,0,VALID,19.8198,VALID,10,VALID,0.188672,
2012-04-05, 01:13:04,VALID,920.628,VALID,0,VALID,97.2595,VALID,0,VALID,19.7988,VALID,10,VALID,0.322266,
2012-04-05, 01:14:04,VALID,920.652,VALID,0,VALID,97.2519,VALID,0,VALID,19.8198,VALID,9,VALID,0,
2012-04-05, 01:15:04,VALID,920.635,VALID,0,VALID,97.2672,VALID,0,VALID,19.7598,VALID,10,VALID,0.280078,
2012-04-05, 01:16:04,VALID,920.638,VALID,0,VALID,97.2595,VALID,0,VALID,19.7808,VALID,10,VALID,0.394141,
2012-04-05, 01:17:04,VALID,920.605,VALID,0,VALID,97.2824,VALID,0,VALID,19.7808,VALID,10,VALID,0.86875,
2012-04-05, 01:18:04,VALID,920.618,VALID,0,VALID,97.2977,VALID,0,VALID,19.8003,VALID,16,VALID,0.983594,
2012-04-05, 01:19:04,VALID,920.58,VALID,0,VALID,97.29,VALID,0,VALID,19.8003,VALID,17,VALID,0.663672,
2012-04-05, 01:20:04,VALID,920.599,VALID,0,VALID,97.29,VALID,0,VALID,19.8003,VALID,16,VALID,0.620313,
2012-04-05, 01:21:04,VALID,920.577,VALID,0,VALID,97.2977,VALID,0,VALID,19.8003,VALID,16,VALID,0.377734,
2012-04-05, 01:22:04,VALID,920.56,VALID,0,VALID,97.2824,VALID,0,VALID,19.7808,VALID,16,VALID,0.440234,
2012-04-05, 01:23:04,VALID,920.541,VALID,0,VALID,97.3053,VALID,0,VALID,19.7808,VALID,16,VALID,0.261328,
2012-04-05, 01:24:04,VALID,920.534,VALID,0,VALID,97.3205,VALID,0.107441,VALID,19.7793,VALID,16,VALID,0.566016,
2012-04-05, 01:25:04,VALID,920.518,VALID,0,VALID,97.2977,VALID,0.107441,VALID,19.7973,VALID,16,VALID,0.413672,
2012-04-05, 01:26:04,VALID,920.494,VALID,0,VALID,97.3205,VALID,0,VALID,19.7988,VALID,17,VALID,0.532812,
2012-04-05, 01:27:04,VALID,920.481,VALID,0,VALID,97.3358,VALID,0,VALID,19.7583,VALID,16,VALID,0.846875,
2012-04-05, 01:28:04,VALID,920.448,VALID,0,VALID,97.3205,VALID,0,VALID,19.7598,VALID,16,VALID,0.775,
2012-04-05, 01:29:04,VALID,920.444,VALID,0,VALID,97.3281,VALID,0,VALID,19.7598,VALID,16,VALID,0.805859,
2012-04-05, 01:30:04,VALID,920.432,VALID,0,VALID,97.3281,VALID,0,VALID,19.7598,VALID,16,VALID,0.852344,
2012-04-05, 01:31:04,VALID,920.398,VALID,0,VALID,97.351,VALID,0.107441,VALID,19.7793,VALID,344,VALID,1.18359,
2012-04-05, 01:32:04,VALID,920.396,VALID,0,VALID,97.3586,VALID,0,VALID,19.7793,VALID,344,VALID,0.367578,
2012-04-05, 01:33:04,VALID,920.371,VALID,0,VALID,97.3586,VALID,0,VALID,19.7793,VALID,344,VALID,0.753906,
2012-04-05, 01:34:04,VALID,920.365,VALID,0,VALID,97.3663,VALID,0,VALID,19.7793,VALID,344,VALID,0.393359,
2012-04-05, 01:35:04,VALID,920.342,VALID,0,VALID,97.3663,VALID,0,VALID,19.7793,VALID,344,VALID,0.826172,
2012-04-05, 01:36:04,VALID,920.345,VALID,0,VALID,97.3663,VALID,0.107441,VALID,19.7793,VALID,344,VALID,0.64375,
2012-04-05, 01:37:04,VALID,920.296,VALID,0,VALID,97.3968,VALID,0,VALID,19.7793,VALID,344,VALID,0.324609,
2012-04-05, 01:38:04,VALID,920.26,VALID,0,VALID,97.3968,VALID,0.107441,VALID,19.7583,VALID,344,VALID,0.0703125,
2012-04-05, 01:39:04,VALID,920.193,VALID,0,VALID,97.3968,VALID,0,VALID,19.7598,VALID,344,VALID,0.126953,
2012-04-05, 01:40:04,VALID,920.204,VALID,0,VALID,97.3815,VALID,0,VALID,19.7598,VALID,344,VALID,0.25625,
2012-04-05, 01:41:04,VALID,920.172,VALID,0,VALID,97.3968,VALID,0,VALID,19.7793,VALID,344,VALID,0,
2012-04-05, 01:42:04,VALID,920.152,VALID,0,VALID,97.4044,VALID,0,VALID,19.7583,VALID,344,VALID,0.0480469,
2012-04-05, 01:43:04,VALID,920.168,VALID,0,VALID,97.4044,VALID,0.107441,VALID,19.7583,VALID,344,VALID,0.0277344,
2012-04-05, 01:44:04,VALID,920.161,VALID,0,VALID,97.4273,VALID,0,VALID,19.7793,VALID,345,VALID,0.203516,
2012-04-05, 01:45:04,VALID,920.148,VALID,0,VALID,97.412,VALID,0,VALID,19.7583,INVALID,360,VALID,0,
2012-04-05, 01:46:04,VALID,920.131,VALID,0,VALID,97.4044,VALID,0,VALID,19.7598,VALID,344,VALID,0,
2012-04-05, 01:47:04,VALID,920.119,VALID,0,VALID,97.4044,VALID,0.107441,VALID,19.7793,VALID,344,VALID,0.00117188,
2012-04-05, 01:48:04,VALID,920.13,VALID,0,VALID,97.412,VALID,0,VALID,19.7583,VALID,344,VALID,0,
2012-04-05, 01:49:04,VALID,920.136,VALID,0,VALID,97.4196,VALID,0,VALID,19.7793,VALID,344,VALID,0,
2012-04-05, 01:50:04,VALID,920.131,VALID,0,VALID,97.412,VALID,0,VALID,19.7598,VALID,344,VALID,0,
2012-04-05, 01:51:04,VALID,920.12,VALID,0,VALID,97.4196,VALID,0.107441,VALID,19.7598,VALID,344,VALID,0,
2012-04-05, 01:52:04,VALID,920.069,VALID,0,VALID,97.4196,VALID,0,VALID,19.7598,VALID,344,VALID,0,
2012-04-05, 01:53:04,VALID,920.05,VALID,0,VALID,97.4273,VALID,0,VALID,19.7403,VALID,344,VALID,0,
2012-04-05, 01:54:04,VALID,920.037,VALID,0,VALID,97.412,VALID,0,VALID,19.7403,VALID,344,VALID,0,
2012-04-05, 01:55:04,VALID,920.029,VALID,0,VALID,97.4273,VALID,0.107441,VALID,19.7403,VALID,344,VALID,0,
2012-04-05, 01:56:04,VALID,919.988,VALID,0,VALID,97.4196,VALID,0,VALID,19.7208,VALID,344,VALID,0,
2012-04-05, 01:57:04,VALID,919.963,VALID,0,VALID,97.4273,VALID,0,VALID,19.7208,VALID,344,VALID,0,
2012-04-05, 01:58:04,VALID,919.964,VALID,0,VALID,97.4196,VALID,0,VALID,19.7208,VALID,344,VALID,0,
2012-04-05, 01:59:04,VALID,919.916,VALID,0,VALID,97.4273,VALID,0,VALID,19.7208,VALID,344,VALID,0,
2012-04-05, 02:00:04,VALID,919.912,VALID,0,VALID,97.4196,VALID,0,VALID,19.6998,VALID,344,VALID,0,
2012-04-05, 02:01:04,VALID,919.883,VALID,0,VALID,97.4349,VALID,0,VALID,19.6998,VALID,344,VALID,0,
2012-04-05, 02:02:04,VALID,919.875,VALID,0,VALID,97.412,VALID,0,VALID,19.6803,VALID,344,VALID,0,
2012-04-05, 02:03:04,VALID,919.843,VALID,0,VALID,97.412,VALID,0,VALID,19.7208,VALID,344,VALID,0,
2012-04-05, 02:04:04,VALID,919.852,VALID,0,VALID,97.4501,VALID,0,VALID,19.7208,VALID,344,VALID,0,
2012-04-05, 02:05:04,VALID,919.854,VALID,0,VALID,97.4349,VALID,0.107441,VALID,19.6803,VALID,344,VALID,0,
2012-04-05, 02:06:04,VALID,919.836,VALID,0,VALID,97.4273,VALID,0,VALID,19.6818,VALID,344,VALID,0,
2012-04-05, 02:07:04,VALID,919.79,VALID,0,VALID,97.4273,VALID,0,VALID,19.6623,VALID,344,VALID,0,
2012-04-05, 02:08:04,VALID,919.777,VALID,0,VALID,97.4349,VALID,0,VALID,19.6428,VALID,344,VALID,0,
2012-04-05, 02:09:04,VALID,919.761,VALID,0,VALID,97.4196,VALID,0.107441,VALID,19.6233,VALID,344,VALID,0,
2012-04-05, 02:10:04,VALID,919.739,VALID,0,VALID,97.4044,VALID,0,VALID,19.5843,VALID,344,VALID,0,
2012-04-05, 02:11:04,VALID,919.737,VALID,0,VALID,97.412,VALID,0,VALID,19.5633,VALID,344,VALID,0,
2012-04-05, 02:12:04,VALID,919.731,VALID,0,VALID,97.3815,VALID,0,VALID,19.4853,VALID,344,VALID,0,
2012-04-05, 02:13:04,VALID,919.698,VALID,0,VALID,97.3586,VALID,0,VALID,19.4673,VALID,344,VALID,0,
2012-04-05, 02:14:04,VALID,919.695,VALID,0,VALID,97.3739,VALID,0.107441,VALID,19.4868,VALID,344,VALID,0,
2012-04-05, 02:15:04,VALID,919.655,VALID,0,VALID,97.3739,VALID,0,VALID,19.5063,VALID,344,VALID,0,
2012-04-05, 02:16:04,VALID,919.672,VALID,0,VALID,97.3663,VALID,0,VALID,19.5063,VALID,344,VALID,0,
2012-04-05, 02:17:04,VALID,919.655,VALID,0,VALID,97.3968,VALID,0,VALID,19.4868,VALID,344,VALID,0,
2012-04-05, 02:18:04,VALID,919.65,VALID,0,VALID,97.412,VALID,0,VALID,19.4658,VALID,344,VALID,0,
2012-04-05, 02:19:04,VALID,919.652,VALID,0,VALID,97.4273,VALID,0,VALID,19.5063,VALID,344,VALID,0,
2012-04-05, 02:20:04,VALID,919.621,VALID,0,VALID,97.4349,VALID,0,VALID,19.5048,VALID,344,VALID,0,
2012-04-05, 02:21:04,VALID,919.587,VALID,0,VALID,97.4349,VALID,0,VALID,19.5258,VALID,344,VALID,0,
2012-04-05, 02:22:04,VALID,919.552,VALID,0,VALID,97.4273,VALID,0,VALID,19.4868,VALID,344,VALID,0,
2012-04-05, 02:23:04,VALID,919.534,VALID,0,VALID,97.412,VALID,0,VALID,19.4868,VALID,344,VALID,0,
2012-04-05, 02:24:04,VALID,919.567,VALID,0,VALID,97.4196,VALID,0,VALID,19.4478,VALID,344,VALID,0,
2012-04-05, 02:25:04,VALID,919.521,VALID,0,VALID,97.4273,VALID,0,VALID,19.4883,VALID,344,VALID,0,
2012-04-05, 02:26:04,VALID,919.518,VALID,0,VALID,97.4425,VALID,0,VALID,19.5078,VALID,344,VALID,0,
2012-04-05, 02:27:04,VALID,919.503,VALID,0,VALID,97.4501,VALID,0,VALID,19.4868,VALID,344,VALID,0,
2012-04-05, 02:28:04,VALID,919.514,VALID,0,VALID,97.4425,VALID,0,VALID,19.5063,VALID,344,VALID,0,
2012-04-05, 02:29:04,VALID,919.499,VALID,0,VALID,97.4501,VALID,0,VALID,19.5063,VALID,344,VALID,0,
2012-04-05, 02:30:04,VALID,919.48,VALID,0,VALID,97.4501,VALID,0,VALID,19.4688,VALID,344,VALID,0,
2012-04-05, 02:31:04,VALID,919.486,VALID,0,VALID,97.4425,VALID,0,VALID,19.4688,VALID,344,VALID,0.678125,
2012-04-05, 02:32:04,VALID,919.482,VALID,0,VALID,97.4501,VALID,0,VALID,19.4688,VALID,344,VALID,0.825,
2012-04-05, 02:33:04,VALID,919.526,VALID,0,VALID,97.4577,VALID,0,VALID,19.4883,VALID,344,VALID,0.590625,
2012-04-05, 02:34:04,VALID,919.497,VALID,0,VALID,97.4425,VALID,0,VALID,19.5078,VALID,351,VALID,0.983594,
2012-04-05, 02:35:04,VALID,919.504,VALID,0,VALID,97.4654,VALID,0,VALID,19.5273,VALID,352,VALID,0.546484,
2012-04-05, 02:36:04,VALID,919.506,VALID,0,VALID,97.4425,VALID,0,VALID,19.5663,VALID,352,VALID,0.751172,
2012-04-05, 02:37:04,VALID,919.508,VALID,0,VALID,97.4577,VALID,0,VALID,19.5843,VALID,352,VALID,0.084375,
2012-04-05, 02:38:04,VALID,919.498,VALID,0,VALID,97.4425,VALID,0,VALID,19.6248,VALID,352,VALID,0,
2012-04-05, 02:39:04,VALID,919.475,VALID,0,VALID,97.4501,VALID,0,VALID,19.6218,VALID,352,VALID,0,
2012-04-05, 02:40:04,VALID,919.446,VALID,0,VALID,97.4425,VALID,0.107441,VALID,19.6233,VALID,352,VALID,0,
2012-04-05, 02:41:04,VALID,919.44,VALID,0,VALID,97.4349,VALID,0,VALID,19.5843,VALID,352,VALID,0,
2012-04-05, 02:42:04,VALID,919.449,VALID,0,VALID,97.412,VALID,0,VALID,19.5843,VALID,352,VALID,0.427344,
2012-04-05, 02:43:04,VALID,919.437,VALID,0,VALID,97.412,VALID,0,VALID,19.5843,VALID,352,VALID,0.4,
2012-04-05, 02:44:04,VALID,919.393,VALID,0,VALID,97.412,VALID,0,VALID,19.5648,VALID,352,VALID,0.563281,
2012-04-05, 02:45:04,VALID,919.384,VALID,0,VALID,97.3891,VALID,0,VALID,19.5468,VALID,352,VALID,0.390625,
2012-04-05, 02:46:04,VALID,919.35,VALID,0,VALID,97.3663,VALID,0,VALID,19.5063,VALID,352,VALID,0.516406,
2012-04-05, 02:47:04,VALID,919.324,VALID,0,VALID,97.351,VALID,0,VALID,19.4883,VALID,352,VALID,0.588281,
2012-04-05, 02:48:04,VALID,919.294,VALID,0,VALID,97.3281,VALID,0,VALID,19.4478,VALID,352,VALID,0.386719,
2012-04-05, 02:49:04,VALID,919.262,VALID,0,VALID,97.3205,VALID,0,VALID,19.4478,VALID,352,VALID,0.352344,
2012-04-05, 02:50:04,VALID,919.252,VALID,0,VALID,97.3129,VALID,0,VALID,19.4283,VALID,352,VALID,0.404687,
2012-04-05, 02:51:04,VALID,919.212,VALID,0,VALID,97.3434,VALID,0.107441,VALID,19.4088,VALID,352,VALID,0.435547,
2012-04-05, 02:52:04,VALID,919.194,VALID,0,VALID,97.3358,VALID,0,VALID,19.4088,VALID,352,VALID,0.0503906,
2012-04-05, 02:53:04,VALID,919.181,VALID,0,VALID,97.3586,VALID,0,VALID,19.3684,VALID,352,VALID,0,
2012-04-05, 02:54:04,VALID,919.155,VALID,0,VALID,97.3663,VALID,0,VALID,19.3893,VALID,352,VALID,0,
2012-04-05, 02:55:04,VALID,919.137,VALID,0,VALID,97.351,VALID,0,VALID,19.3698,VALID,352,VALID,0,
2012-04-05, 02:56:04,VALID,919.161,VALID,0,VALID,97.3434,VALID,0,VALID,19.3698,VALID,352,VALID,0,
2012-04-05, 02:57:04,VALID,919.127,VALID,0,VALID,97.3434,VALID,0.107441,VALID,19.3503,VALID,352,VALID,0,
2012-04-05, 02:58:04,VALID,919.117,VALID,0,VALID,97.351,VALID,0.107441,VALID,19.3503,VALID,352,VALID,0,
2012-04-05, 02:59:04,VALID,919.085,VALID,0,VALID,97.3586,VALID,0.107441,VALID,19.3503,VALID,352,VALID,0,
2012-04-05, 03:00:04,VALID,919.033,VALID,0,VALID,97.351,VALID,0.107441,VALID,19.3308,VALID,352,VALID,0,
2012-04-05, 03:01:04,VALID,919.043,VALID,0,VALID,97.3358,VALID,0,VALID,19.3113,VALID,352,VALID,0.325391,
2012-04-05, 03:02:04,VALID,919.04,VALID,0,VALID,97.3358,VALID,0.107441,VALID,19.3308,VALID,352,VALID,0.133203,
2012-04-05, 03:03:04,VALID,918.967,VALID,0,VALID,97.29,VALID,0.107441,VALID,19.2918,VALID,352,VALID,0.0492188,
2012-04-05, 03:04:04,VALID,918.988,VALID,0,VALID,97.2748,VALID,0,VALID,19.2918,VALID,352,VALID,0,
2012-04-05, 03:05:04,VALID,918.959,VALID,0,VALID,97.2824,VALID,0,VALID,19.2723,VALID,352,VALID,0,
2012-04-05, 03:06:04,VALID,918.932,VALID,0,VALID,97.2519,VALID,0,VALID,19.2918,VALID,352,VALID,0,
2012-04-05, 03:07:04,VALID,918.888,VALID,0,VALID,97.2138,VALID,0,VALID,19.2933,VALID,352,VALID,0,
2012-04-05, 03:08:04,VALID,918.866,VALID,0,VALID,97.1223,VALID,0,VALID,19.2334,VALID,352,VALID,0,
2012-04-05, 03:09:04,VALID,918.848,VALID,0,VALID,97.0842,VALID,0,VALID,19.1749,VALID,352,VALID,0,
2012-04-05, 03:10:04,VALID,918.804,VALID,0,VALID,97.0613,VALID,0,VALID,19.1568,VALID,352,VALID,0,
2012-04-05, 03:11:04,VALID,918.783,VALID,0,VALID,97.0537,VALID,0,VALID,19.0983,VALID,352,VALID,0,
2012-04-05, 03:12:04,VALID,918.775,VALID,0,VALID,97.069,VALID,0,VALID,19.0384,VALID,352,VALID,0,
2012-04-05, 03:13:04,VALID,918.774,VALID,0,VALID,97.1147,VALID,0.107441,VALID,19.0189,VALID,352,VALID,0,
2012-04-05, 03:14:04,VALID,918.767,VALID,0,VALID,97.1909,VALID,0.107441,VALID,19.0189,VALID,352,VALID,0,
2012-04-05, 03:15:04,VALID,918.758,VALID,0,VALID,97.2138,VALID,0,VALID,19.0593,VALID,352,VALID,0,
2012-04-05, 03:16:04,VALID,918.736,VALID,0,VALID,97.2062,VALID,0,VALID,19.0579,VALID,352,VALID,0,
2012-04-05, 03:17:04,VALID,918.765,VALID,0,VALID,97.1909,VALID,0.107441,VALID,19.0774,VALID,352,VALID,0,
2012-04-05, 03:18:04,VALID,918.711,VALID,0,VALID,97.1528,VALID,0,VALID,19.0774,VALID,352,VALID,0,
2012-04-05, 03:19:04,VALID,918.692,VALID,0,VALID,97.1299,VALID,0,VALID,19.0579,VALID,352,VALID,0,
2012-04-05, 03:20:04,VALID,918.73,VALID,0,VALID,97.1147,VALID,0.107441,VALID,19.0579,VALID,352,VALID,0,
2012-04-05, 03:21:04,VALID,918.705,VALID,0,VALID,97.1071,VALID,0,VALID,19.0774,VALID,352,VALID,0,
2012-04-05, 03:22:04,VALID,918.728,VALID,0,VALID,97.0994,VALID,0.107441,VALID,19.0774,VALID,352,VALID,0,
2012-04-05, 03:23:04,VALID,918.724,VALID,0,VALID,97.1071,VALID,0,VALID,19.0774,VALID,352,VALID,0,
2012-04-05, 03:24:04,VALID,918.704,VALID,0,VALID,97.1223,VALID,0,VALID,19.0969,VALID,352,VALID,0,
2012-04-05, 03:25:04,VALID,918.718,VALID,0,VALID,97.1757,VALID,0,VALID,19.1359,VALID,352,VALID,0,
2012-04-05, 03:26:04,VALID,918.685,VALID,0,VALID,97.1909,VALID,0.107441,VALID,19.1749,VALID,352,VALID,0,
2012-04-05, 03:27:04,VALID,918.639,VALID,0,VALID,97.0156,VALID,0,VALID,19.1164,VALID,352,VALID,0,
2012-04-05, 03:28:04,VALID,918.644,VALID,0,VALID,97.0461,VALID,0.107441,VALID,19.0969,VALID,352,VALID,0,
2012-04-05, 03:29:04,VALID,918.661,VALID,0,VALID,97.0918,VALID,0,VALID,19.1164,VALID,352,VALID,0,
2012-04-05, 03:30:04,VALID,918.647,VALID,0,VALID,97.0537,VALID,0.107441,VALID,19.0759,VALID,352,VALID,0,
2012-04-05, 03:31:04,VALID,918.624,VALID,0,VALID,97.1299,VALID,0,VALID,19.1164,VALID,352,VALID,0,
2012-04-05, 03:32:04,VALID,918.625,VALID,0,VALID,97.1604,VALID,0.107441,VALID,19.1359,VALID,352,VALID,0.0421875,
2012-04-05, 03:33:04,VALID,918.635,VALID,0,VALID,97.1147,VALID,0,VALID,19.1164,VALID,352,VALID,0,
2012-04-05, 03:34:04,VALID,918.635,VALID,0,VALID,97.0308,VALID,0,VALID,19.0969,VALID,352,VALID,0.104297,
2012-04-05, 03:35:04,VALID,918.606,VALID,0,VALID,96.9851,VALID,0.107441,VALID,19.0384,VALID,352,VALID,0.112109,
2012-04-05, 03:36:04,VALID,918.626,VALID,0,VALID,97.0461,VALID,0.107441,VALID,19.0369,VALID,352,VALID,0.362891,
2012-04-05, 03:37:04,VALID,918.642,VALID,0,VALID,97.0613,VALID,0.107441,VALID,19.0774,VALID,352,VALID,0,
2012-04-05, 03:38:04,VALID,918.61,VALID,0,VALID,97.0918,VALID,0,VALID,19.0369,VALID,352,VALID,0.440234,
2012-04-05, 03:39:04,VALID,918.555,VALID,0,VALID,97.229,VALID,0,VALID,19.1359,VALID,352,VALID,0.367188,
2012-04-05, 03:40:04,VALID,918.541,VALID,0,VALID,97.2443,VALID,0,VALID,19.1749,VALID,352,VALID,0.360938,
2012-04-05, 03:41:04,VALID,918.538,VALID,0,VALID,97.2595,VALID,0.107441,VALID,19.1944,VALID,352,VALID,0.462109,
2012-04-05, 03:42:04,VALID,918.53,VALID,0,VALID,97.2367,VALID,0.107441,VALID,19.1944,VALID,352,VALID,0.336328,
2012-04-05, 03:43:04,VALID,918.523,VALID,0,VALID,97.2062,VALID,0,VALID,19.1944,VALID,352,VALID,0,
2012-04-05, 03:44:04,VALID,918.514,VALID,0,VALID,97.2214,VALID,0,VALID,19.1944,VALID,352,VALID,0,
2012-04-05, 03:45:04,VALID,918.51,VALID,0,VALID,97.2214,VALID,0,VALID,19.2153,VALID,352,VALID,0.163281,
2012-04-05, 03:46:04,VALID,918.522,VALID,0,VALID,97.2138,VALID,0,VALID,19.1944,VALID,352,VALID,0.0789063,
2012-04-05, 03:47:04,VALID,918.489,VALID,0,VALID,97.229,VALID,0.107441,VALID,19.1944,VALID,352,VALID,0,
2012-04-05, 03:48:04,VALID,918.486,VALID,0,VALID,97.2367,VALID,0,VALID,19.2139,VALID,352,VALID,0,
2012-04-05, 03:49:04,VALID,918.495,VALID,0,VALID,97.2214,VALID,0,VALID,19.1944,VALID,352,VALID,0,
2012-04-05, 03:50:04,VALID,918.518,VALID,0,VALID,97.2519,VALID,0.107441,VALID,19.2139,VALID,352,VALID,0,